Time,TemperatureF,DewpointF,PressureIn,WindDirection,WindDirectionDegrees,WindSpeedMPH,WindSpeedGustMPH,Humidity,HourlyPrecipIn,Conditions,Clouds,dailyrainin,SoftwareType,DateUTC
2013-01-18 00:03:00,23.0,13.0,-100.00,WNW,295,10.0,13.0,65,-99.99,,,-99.99,,2013-01-18 05:03:00,
2013-01-18 00:22:00,22.0,12.0,-100.00,WNW,290,7.0,11.0,65,-99.99,,,-99.99,,2013-01-18 05:22:00,
2013-01-18 00:33:00,22.0,12.0,-100.00,WNW,290,7.0,11.0,65,-99.99,,,-99.99,,2013-01-18 05:33:00,
2013-01-18 00:53:00,22.0,12.0,-100.00,NW,305,6.0,10.0,66,-99.99,,,-99.99,,2013-01-18 05:53:00,
2013-01-18 01:02:00,22.0,12.0,-100.00,NW,305,6.0,10.0,66,-99.99,,,-99.99,,2013-01-18 06:02:00,
2013-01-18 01:22:00,21.0,12.0,-100.00,West,275,4.0,6.0,67,-99.99,,,-99.99,,2013-01-18 06:22:00,
2013-01-18 01:33:00,21.0,12.0,-100.00,West,275,4.0,6.0,67,-99.99,,,-99.99,,2013-01-18 06:33:00,
2013-01-18 01:53:00,20.0,11.0,-100.00,West,270,2.0,4.0,69,-99.99,,,-99.99,,2013-01-18 06:53:00,
2013-01-18 02:02:00,20.0,11.0,-100.00,West,270,2.0,4.0,69,-99.99,,,-99.99,,2013-01-18 07:02:00,
2013-01-18 02:22:00,19.0,12.0,-100.00,West,265,4.0,4.0,73,-99.99,,,-99.99,,2013-01-18 07:22:00,
2013-01-18 02:32:00,19.0,12.0,-100.00,West,265,4.0,4.0,73,-99.99,,,-99.99,,2013-01-18 07:32:00,
2013-01-18 02:52:00,19.0,13.0,-100.00,WSW,250,3.0,4.0,75,-99.99,,,-99.99,,2013-01-18 07:52:00,
2013-01-18 03:02:00,19.0,13.0,-100.00,WSW,250,3.0,4.0,75,-99.99,,,-99.99,,2013-01-18 08:02:00,
2013-01-18 03:22:00,18.0,12.0,-100.00,WSW,250,3.0,5.0,78,-99.99,,,-99.99,,2013-01-18 08:22:00,
2013-01-18 03:32:00,18.0,12.0,-100.00,WSW,250,3.0,5.0,78,-99.99,,,-99.99,,2013-01-18 08:32:00,
2013-01-18 03:53:00,19.0,13.0,-100.00,WSW,250,5.0,7.0,78,-99.99,,,-99.99,,2013-01-18 08:53:00,
2013-01-18 04:02:00,19.0,13.0,-100.00,WSW,250,5.0,7.0,78,-99.99,,,-99.99,,2013-01-18 09:02:00,
2013-01-18 04:22:00,19.0,13.0,-100.00,WSW,245,4.0,6.0,77,-99.99,,,-99.99,,2013-01-18 09:22:00,
2013-01-18 04:33:00,19.0,13.0,-100.00,WSW,245,4.0,6.0,77,-99.99,,,-99.99,,2013-01-18 09:33:00,
2013-01-18 04:53:00,19.0,13.0,-100.00,WSW,245,4.0,6.0,78,-99.99,,,-99.99,,2013-01-18 09:53:00,
2013-01-18 05:02:00,19.0,13.0,-100.00,WSW,245,4.0,6.0,78,-99.99,,,-99.99,,2013-01-18 10:02:00,
2013-01-18 05:22:00,19.0,14.0,-100.00,WSW,240,4.0,6.0,79,-99.99,,,-99.99,,2013-01-18 10:22:00,
2013-01-18 05:32:00,19.0,14.0,-100.00,WSW,240,4.0,6.0,79,-99.99,,,-99.99,,2013-01-18 10:32:00,
2013-01-18 05:53:00,19.0,14.0,-100.00,WSW,240,4.0,6.0,80,-99.99,,,-99.99,,2013-01-18 10:53:00,
2013-01-18 06:02:00,19.0,14.0,-100.00,WSW,240,4.0,6.0,80,-99.99,,,-99.99,,2013-01-18 11:02:00,
2013-01-18 06:23:00,19.0,14.0,-100.00,WSW,255,4.0,7.0,81,-99.99,,,-99.99,,2013-01-18 11:23:00,
2013-01-18 06:32:00,19.0,14.0,-100.00,WSW,255,4.0,7.0,81,-99.99,,,-99.99,,2013-01-18 11:32:00,
2013-01-18 06:53:00,18.0,14.0,-100.00,SW,235,4.0,5.0,83,-99.99,,,-99.99,,2013-01-18 11:53:00,
2013-01-18 07:03:00,18.0,14.0,-100.00,SW,235,4.0,5.0,83,-99.99,,,-99.99,,2013-01-18 12:03:00,
2013-01-18 07:22:00,18.0,15.0,-100.00,SW,220,5.0,7.0,85,-99.99,,,-99.99,,2013-01-18 12:22:00,
2013-01-18 07:33:00,18.0,15.0,-100.00,SW,220,5.0,7.0,85,-99.99,,,-99.99,,2013-01-18 12:33:00,
2013-01-18 07:53:00,19.0,16.0,-100.00,WSW,245,4.0,7.0,86,-99.99,,,-99.99,,2013-01-18 12:53:00,
2013-01-18 08:03:00,19.0,16.0,-100.00,WSW,245,4.0,7.0,86,-99.99,,,-99.99,,2013-01-18 13:03:00,
2013-01-18 08:23:00,20.0,16.0,-100.00,SW,235,5.0,7.0,86,-99.99,,,-99.99,,2013-01-18 13:23:00,
2013-01-18 08:33:00,20.0,16.0,-100.00,SW,235,5.0,7.0,86,-99.99,,,-99.99,,2013-01-18 13:33:00,
2013-01-18 08:53:00,20.0,17.0,-100.00,SW,215,6.0,9.0,86,-99.99,,,-99.99,,2013-01-18 13:53:00,
2013-01-18 09:03:00,20.0,17.0,-100.00,SW,215,6.0,9.0,86,-99.99,,,-99.99,,2013-01-18 14:03:00,
2013-01-18 09:23:00,22.0,18.0,-100.00,SW,220,6.0,9.0,86,-99.99,,,-99.99,,2013-01-18 14:23:00,
2013-01-18 09:33:00,22.0,18.0,-100.00,SW,220,6.0,9.0,86,-99.99,,,-99.99,,2013-01-18 14:33:00,
2013-01-18 09:53:00,24.0,20.0,-100.00,SW,220,7.0,9.0,84,-99.99,,,-99.99,,2013-01-18 14:53:00,
2013-01-18 10:03:00,24.0,20.0,-100.00,SW,220,7.0,9.0,84,-99.99,,,-99.99,,2013-01-18 15:03:00,
2013-01-18 10:23:00,26.0,21.0,-100.00,SSW,195,7.0,14.0,80,-99.99,,,-99.99,,2013-01-18 15:23:00,
2013-01-18 10:33:00,26.0,21.0,-100.00,SSW,195,7.0,14.0,80,-99.99,,,-99.99,,2013-01-18 15:33:00,
2013-01-18 10:54:00,28.0,21.0,-100.00,SW,220,9.0,14.0,75,-99.99,,,-99.99,,2013-01-18 15:54:00,
2013-01-18 11:03:00,28.0,21.0,-100.00,SW,220,9.0,14.0,75,-99.99,,,-99.99,,2013-01-18 16:03:00,
2013-01-18 11:23:00,29.0,21.0,-100.00,SSW,210,11.0,16.0,73,-99.99,,,-99.99,,2013-01-18 16:23:00,
2013-01-18 11:33:00,29.0,21.0,-100.00,SSW,210,11.0,16.0,73,-99.99,,,-99.99,,2013-01-18 16:33:00,
2013-01-18 11:53:00,31.0,22.0,-100.00,SW,235,10.0,20.0,68,-99.99,,,-99.99,,2013-01-18 16:53:00,
2013-01-18 12:03:00,31.0,22.0,-100.00,SW,235,10.0,20.0,68,-99.99,,,-99.99,,2013-01-18 17:03:00,
2013-01-18 12:23:00,33.0,22.0,-100.00,SW,220,11.0,19.0,64,-99.99,,,-99.99,,2013-01-18 17:23:00,
2013-01-18 12:33:00,33.0,22.0,-100.00,SW,220,11.0,19.0,64,-99.99,,,-99.99,,2013-01-18 17:33:00,
2013-01-18 12:53:00,33.0,21.0,-100.00,WSW,240,12.0,23.0,61,-99.99,,,-99.99,,2013-01-18 17:53:00,
2013-01-18 13:03:00,33.0,21.0,-100.00,WSW,240,12.0,23.0,61,-99.99,,,-99.99,,2013-01-18 18:03:00,
2013-01-18 13:23:00,34.0,21.0,-100.00,SW,225,16.0,21.0,59,-99.99,,,-99.99,,2013-01-18 18:23:00,
2013-01-18 13:33:00,34.0,21.0,-100.00,SW,225,16.0,21.0,59,-99.99,,,-99.99,,2013-01-18 18:33:00,
2013-01-18 13:53:00,34.0,21.0,-100.00,SW,225,17.0,24.0,59,-99.99,,,-99.99,,2013-01-18 18:53:00,
2013-01-18 14:03:00,34.0,21.0,-100.00,SW,225,17.0,24.0,59,-99.99,,,-99.99,,2013-01-18 19:03:00,
2013-01-18 14:23:00,36.0,23.0,-100.00,SW,225,12.0,24.0,57,-99.99,,,-99.99,,2013-01-18 19:23:00,
2013-01-18 14:33:00,36.0,23.0,-100.00,SW,225,12.0,24.0,57,-99.99,,,-99.99,,2013-01-18 19:33:00,
2013-01-18 14:53:00,37.0,22.0,-100.00,SSW,210,16.0,24.0,55,-99.99,,,-99.99,,2013-01-18 19:53:00,
2013-01-18 15:03:00,37.0,22.0,-100.00,SSW,210,16.0,24.0,55,-99.99,,,-99.99,,2013-01-18 20:03:00,
2013-01-18 15:23:00,37.0,22.0,-100.00,SSW,210,16.0,24.0,54,-99.99,,,-99.99,,2013-01-18 20:23:00,
2013-01-18 15:33:00,37.0,22.0,-100.00,SSW,210,16.0,24.0,54,-99.99,,,-99.99,,2013-01-18 20:33:00,
2013-01-18 15:53:00,38.0,22.0,-100.00,SW,215,16.0,24.0,53,-99.99,,,-99.99,,2013-01-18 20:53:00,
2013-01-18 16:03:00,38.0,22.0,-100.00,SW,215,16.0,24.0,53,-99.99,,,-99.99,,2013-01-18 21:03:00,
2013-01-18 16:23:00,38.0,22.0,-100.00,SW,225,17.0,23.0,52,-99.99,,,-99.99,,2013-01-18 21:23:00,
2013-01-18 16:33:00,38.0,22.0,-100.00,SW,225,17.0,23.0,52,-99.99,,,-99.99,,2013-01-18 21:33:00,
2013-01-18 16:53:00,38.0,22.0,-100.00,SW,230,16.0,22.0,52,-99.99,,,-99.99,,2013-01-18 21:53:00,
2013-01-18 17:03:00,38.0,22.0,-100.00,SW,230,16.0,22.0,52,-99.99,,,-99.99,,2013-01-18 22:03:00,
2013-01-18 17:23:00,37.0,22.0,-100.00,SW,220,14.0,21.0,53,-99.99,,,-99.99,,2013-01-18 22:23:00,
2013-01-18 17:33:00,37.0,22.0,-100.00,SW,220,14.0,21.0,53,-99.99,,,-99.99,,2013-01-18 22:33:00,
2013-01-18 17:53:00,36.0,21.0,-100.00,SW,215,14.0,25.0,55,-99.99,,,-99.99,,2013-01-18 22:53:00,
2013-01-18 18:03:00,36.0,21.0,-100.00,SW,215,14.0,25.0,55,-99.99,,,-99.99,,2013-01-18 23:03:00,
2013-01-18 18:22:00,36.0,21.0,-100.00,SW,225,16.0,25.0,54,-99.99,,,-99.99,,2013-01-18 23:22:00,
2013-01-18 18:33:00,36.0,21.0,-100.00,SW,225,16.0,25.0,54,-99.99,,,-99.99,,2013-01-18 23:33:00,
2013-01-18 18:53:00,35.0,21.0,-100.00,SW,215,14.0,24.0,55,-99.99,,,-99.99,,2013-01-18 23:53:00,
2013-01-18 19:02:00,35.0,21.0,-100.00,SW,215,14.0,24.0,55,-99.99,,,-99.99,,2013-01-19 00:02:00,
2013-01-18 19:22:00,36.0,22.0,-100.00,SW,215,19.0,29.0,56,-99.99,,,-99.99,,2013-01-19 00:22:00,
2013-01-18 19:33:00,36.0,22.0,-100.00,SW,215,19.0,29.0,56,-99.99,,,-99.99,,2013-01-19 00:33:00,
2013-01-18 19:53:00,36.0,22.0,-100.00,SW,220,18.0,27.0,56,-99.99,,,-99.99,,2013-01-19 00:53:00,
2013-01-18 20:02:00,36.0,22.0,-100.00,SW,220,18.0,27.0,56,-99.99,,,-99.99,,2013-01-19 01:02:00,
2013-01-18 20:22:00,37.0,22.0,-100.00,WSW,240,22.0,30.0,55,-99.99,,,-99.99,,2013-01-19 01:22:00,
2013-01-18 20:33:00,37.0,22.0,-100.00,WSW,240,22.0,30.0,55,-99.99,,,-99.99,,2013-01-19 01:33:00,
2013-01-18 20:53:00,37.0,23.0,-100.00,SW,230,16.0,28.0,56,-99.99,,,-99.99,,2013-01-19 01:53:00,
2013-01-18 21:02:00,37.0,23.0,-100.00,SW,230,16.0,28.0,56,-99.99,,,-99.99,,2013-01-19 02:02:00,
2013-01-18 21:22:00,37.0,23.0,-100.00,SW,235,18.0,26.0,57,-99.99,,,-99.99,,2013-01-19 02:22:00,
2013-01-18 21:33:00,37.0,23.0,-100.00,SW,235,18.0,26.0,57,-99.99,,,-99.99,,2013-01-19 02:33:00,
2013-01-18 21:53:00,37.0,24.0,-100.00,SW,230,15.0,24.0,58,-99.99,,,-99.99,,2013-01-19 02:53:00,
2013-01-18 22:03:00,37.0,24.0,-100.00,SW,230,15.0,24.0,58,-99.99,,,-99.99,,2013-01-19 03:03:00,
2013-01-18 22:22:00,38.0,24.0,-100.00,SW,235,15.0,28.0,57,-99.99,,,-99.99,,2013-01-19 03:22:00,
2013-01-18 22:33:00,38.0,24.0,-100.00,SW,235,15.0,28.0,57,-99.99,,,-99.99,,2013-01-19 03:33:00,
2013-01-18 22:53:00,38.0,24.0,-100.00,WSW,240,16.0,24.0,56,-99.99,,,-99.99,,2013-01-19 03:53:00,
2013-01-18 23:02:00,38.0,24.0,-100.00,WSW,240,16.0,24.0,56,-99.99,,,-99.99,,2013-01-19 04:02:00,
2013-01-18 23:22:00,38.0,24.0,-100.00,WSW,250,14.0,24.0,57,-99.99,,,-99.99,,2013-01-19 04:22:00,
2013-01-18 23:32:00,38.0,24.0,-100.00,WSW,250,14.0,24.0,57,-99.99,,,-99.99,,2013-01-19 04:32:00,
2013-01-18 23:53:00,38.0,25.0,-100.00,SW,235,15.0,21.0,59,-99.99,,,-99.99,,2013-01-19 04:53:00,